Voltar ao catálogo

NOAA 16 DEB

AtivoSSO
NORAD 41061·DEBRIS·🇺🇸 United States

Lançado Sep 21, 2000 de Vandenberg Space Force Base

Loading…

Próximas Passagens (próximas 24 horas)

TLE

AtualizadoSource: Space-Track

Época: Sep 14, 2026, 05:16 UTC

1 41061U 00055U   26257.21956474  .00000836  00000-0  38409-3 0  9996
2 41061  98.6817 341.4438 0019297  18.4464 341.7411 14.23758087558986

Acompanhe NOAA 16 DEB em tempo real com AllMySat

Download on the App Store